Grizzly Air Cargo 5351


PADQ
Kodiak Airport
Kodiak, Alaska, US
PANC
Ted Stevens Anchorage International Airport
Anchorage, Alaska, US

Activity Log

Date Flight Route Aircraft Duration
11/25/2019 GRZ5351 ODK Q49 AMOTT AMOTT4 SF34 1h 09m
10/11/2019 GRZ551 ODK Q49 AMOTT AMOTT4 SF34 1h 02m
10/09/2019 GRZ551 ODK Q49 AMOTT AMOTT4 SF34 1h 13m
10/08/2019 GRZ551 ODK Q49 AMOTT AMOTT4 SF34 0h 54m
09/26/2019 GRZ551 ODK Q49 AMOTT AMOTT4 SF34 1h 28m

Route Details

Aircraft Information
Primary: Saab 340AF
Backup: Not Available
Route Data
Distance: 245nm
Sched. Duration: 1h 19m
Avg. Duration: 1h 01m (-19m)
Times Flown: 5
Recm'd Route: ODK Q49 AMOTT AMOTT4
Planned Altitude: 25,000ft
Origin Wx: PADQ 311353Z AUTO 28006KT 10SM CLR M08/M14 A3019 RMK AO2 SLP223 T10781144 TSNO
Dest. Wx: PANC 311353Z 12003KT 10SM CLR M08/M14 A3019 RMK AO2 SLP225 T10831144 $
Notes:

Financial History
Total Freight: 31,450lbs
Average Load: 6,290lbs/flt
Fuel Used: 8,722lbs
Avg. Fuel Used: 1,744lbs/flt
Fuel Expense: $9,769
Avg. Fuel Expense: $1,954
Avg. Fuel Cost: $1.12/lbs
Total Gross Income: $65,748
Pilot Pay: $1,075
Total Expenses: $7,361
Total Revenue: $47,211
Average Revenue: $13,149.50